Farmingdale, NJ

11:34 AM EDT on August 28, 2016 (GMT -0400)
Allaire

Weather History for KBLM - February, 2011

Change the Weather History Date:

Monday, February 28, 2011

  Actual Average Record
Temperature  
Mean Temperature 52 °F -  
Max Temperature 64 °F 43 °F 64 °F (2011)
Min Temperature 39 °F 29 °F 8 °F (2014)
Degree Days  
Heating Degree Days 14    
Growing Degree Days 2 (Base 50)    
Moisture  
Dew Point 36 °F    
Average Humidity 58    
Maximum Humidity 66    
Minimum Humidity 49    
Precipitation  
Precipitation 0.22 in - - ()
Sea Level Pressure  
Sea Level Pressure 29.76 in    
Wind  
Wind Speed 12 mph (SSW)    
Max Wind Speed 23 mph    
Max Gust Speed 31 mph    
Visibility 10 miles    
Events      
Averages and records for this station are not official NWS values.
T = Trace of Precipitation, MM = Missing Value Source: NWS Daily Summary

Daily Weather History Graph

Daily Weather History Graph

Search for Another Location

Airport or City:

Trip Planner

Search our weather history database for the weather conditions in past years. The results will help you decide how hot, cold, wet, or windy it might be!

Date:

Astronomy

Feb. 28, 2011 Rise Set
Actual Time 6:31 AM EST 5:46 PM EST
Civil Twilight 6:04 AM EST 6:14 PM EST
Nautical Twilight 5:33 AM EST 6:45 PM EST
Astronomical Twilight 5:01 AM EST 7:17 PM EST
Moon 4:02 AM EST 1:59 PM EST
Length of Visible Light 12h 09m
Length of Day
11h 14m
Waning Crescent, 15% of the Moon is Illuminated
Feb 28
Waning Crescent
Mar 4
New
Mar 12
First Quarter
Mar 19
Full
Mar 26
Last Quarter

Hourly Weather History & Observations

Time (EST) Temp. Windchill Dew Point Humidity Pressure Visibility Wind Dir Wind Speed Gust Speed Precip Events Conditions
12:15 AM 41.0 °F 34.7 °F 24.8 °F 53% 30.09 in - SE 10.4 mph - N/A   Clear
12:35 AM 39.2 °F 33.6 °F 24.8 °F 56% 30.10 in - SE 8.1 mph - N/A   Scattered Clouds
12:55 AM 39.2 °F 32.5 °F 24.8 °F 56% 30.09 in - SE 10.4 mph - N/A   Overcast
1:15 AM 39.2 °F 32.0 °F 26.6 °F 61% 30.08 in - SE 11.5 mph 16.1 mph N/A   Mostly Cloudy
1:35 AM 39.2 °F 32.5 °F 26.6 °F 61% 30.07 in - SE 10.4 mph - N/A   Mostly Cloudy
1:55 AM 41.0 °F 34.3 °F 26.6 °F 57% 30.06 in - ESE 11.5 mph 16.1 mph N/A   Overcast
2:15 AM 39.2 °F 32.0 °F 26.6 °F 61% 30.05 in - ESE 11.5 mph - N/A   Mostly Cloudy
2:35 AM 39.2 °F 32.5 °F 26.6 °F 61% 30.04 in - ESE 10.4 mph - N/A   Scattered Clouds
3:15 AM 41.0 °F 33.9 °F 26.6 °F 57% 30.03 in - ESE 12.7 mph - N/A   Overcast
3:35 AM 41.0 °F 36.4 °F 26.6 °F 57% 30.04 in - SE 6.9 mph - 0.02 in   Overcast
3:55 AM 41.0 °F 36.4 °F 28.4 °F 61% 30.05 in - East 6.9 mph - 0.08 in   Overcast
4:15 AM 39.2 °F 33.6 °F 28.4 °F 65% 30.03 in - ESE 8.1 mph - 0.06 in   Overcast
4:35 AM 39.2 °F 31.6 °F 28.4 °F 65% 30.00 in - ESE 12.7 mph - 0.09 in   Overcast
4:55 AM 39.2 °F 32.0 °F 28.4 °F 65% 29.99 in - ESE 11.5 mph 17.3 mph 0.09 in   Overcast
5:15 AM 39.2 °F 31.2 °F 28.4 °F 65% 29.94 in - ESE 13.8 mph 20.7 mph 0.02 in   Overcast
5:35 AM 41.0 °F 33.9 °F 28.4 °F 61% 29.93 in - East 12.7 mph - 0.05 in   Overcast
5:55 AM 41.0 °F 34.3 °F 28.4 °F 61% 29.92 in - ESE 11.5 mph - 0.05 in   Overcast
6:35 AM 41.0 °F 33.5 °F 28.4 °F 61% 29.87 in - SE 13.8 mph 19.6 mph N/A   Overcast
6:55 AM 42.8 °F 35.8 °F 28.4 °F 57% 29.84 in - SE 13.8 mph 21.9 mph N/A   Overcast
7:35 AM 44.6 °F 37.8 °F 30.2 °F 57% 29.80 in - SSE 15.0 mph 27.6 mph N/A   Overcast
7:55 AM 44.6 °F 37.8 °F 32.0 °F 61% 29.77 in - SSE 15.0 mph 28.8 mph N/A   Overcast
8:15 AM 44.6 °F 38.4 °F 32.0 °F 61% 29.74 in - SSE 12.7 mph 24.2 mph N/A   Overcast
8:35 AM 44.6 °F 37.8 °F 33.8 °F 66% 29.74 in - South 15.0 mph 23.0 mph N/A   Overcast
8:55 AM 46.4 °F 40.1 °F 33.8 °F 62% 29.71 in - South 15.0 mph 25.3 mph N/A   Overcast
9:15 AM 48.2 °F - 35.6 °F 62% 29.68 in - South 10.4 mph 18.4 mph N/A   Overcast
9:35 AM 48.2 °F - 37.4 °F 66% 29.68 in - SSW 9.2 mph - N/A   Overcast
9:55 AM 51.8 °F - 39.2 °F 62% 29.66 in - South 8.1 mph - N/A   Mostly Cloudy
10:15 AM 53.6 °F - 41.0 °F 62% 29.65 in - SSW 11.5 mph 16.1 mph N/A   Scattered Clouds
10:35 AM 55.4 °F - 42.8 °F 63% 29.65 in - WSW 9.2 mph 17.3 mph N/A   Mostly Cloudy
10:55 AM 59.0 °F - 44.6 °F 59% 29.64 in - SW 10.4 mph 17.3 mph N/A   Mostly Cloudy
11:35 AM 60.8 °F - 46.4 °F 59% 29.66 in 10.0 mi WNW 9.2 mph - N/A   Overcast
11:55 AM 59.0 °F - 44.6 °F 59% 29.64 in 10.0 mi SW 18.4 mph 24.2 mph N/A   Overcast
12:15 PM 59.0 °F - 42.8 °F 55% 29.61 in - SW 13.8 mph 20.7 mph N/A   Overcast
12:35 PM 60.8 °F - 42.8 °F 52% 29.58 in - SSW 16.1 mph 23.0 mph N/A   Mostly Cloudy
12:55 PM 64.4 °F - 44.6 °F 49% 29.58 in 10.0 mi SW 16.1 mph 26.5 mph N/A   Scattered Clouds
1:15 PM 64.4 °F - 44.6 °F 49% 29.56 in 10.0 mi SW 18.4 mph 25.3 mph N/A   Mostly Cloudy
1:35 PM 64.4 °F - 44.6 °F 49% 29.55 in 10.0 mi SW 18.4 mph 31.1 mph N/A   Mostly Cloudy
1:55 PM 64.4 °F - 44.6 °F 49% 29.54 in 10.0 mi SSW 17.3 mph 27.6 mph N/A   Scattered Clouds
2:15 PM 64.4 °F - 44.6 °F 49% 29.56 in 10.0 mi SW 15.0 mph 24.2 mph N/A   Mostly Cloudy
2:35 PM 64.4 °F - 44.6 °F 49% 29.57 in 10.0 mi WSW 12.7 mph 25.3 mph N/A   Partly Cloudy
2:55 PM 64.4 °F - 44.6 °F 49% 29.57 in 10.0 mi WSW 13.8 mph 27.6 mph N/A   Scattered Clouds
3:15 PM 62.6 °F - 44.6 °F 52% 29.58 in 10.0 mi SW 16.1 mph 26.5 mph N/A   Mostly Cloudy
3:35 PM 62.6 °F - 44.6 °F 52% 29.57 in - SW 12.7 mph 20.7 mph N/A   Mostly Cloudy
3:55 PM 60.8 °F - 42.8 °F 52% 29.57 in - SSW 13.8 mph 21.9 mph N/A   Mostly Cloudy
4:15 PM 60.8 °F - 44.6 °F 55% 29.61 in - WNW 13.8 mph 23.0 mph N/A   Scattered Clouds
4:35 PM 60.8 °F - 44.6 °F 55% 29.62 in - West 11.5 mph - N/A   Partly Cloudy
4:55 PM 59.0 °F - 44.6 °F 59% 29.63 in - WSW 12.7 mph 20.7 mph N/A   Partly Cloudy
5:15 PM 59.0 °F - 44.6 °F 59% 29.63 in - West 11.5 mph 17.3 mph N/A   Mostly Cloudy
5:35 PM 57.2 °F - 42.8 °F 59% 29.63 in - SW 13.8 mph 20.7 mph N/A   Mostly Cloudy
5:55 PM 57.2 °F - 42.8 °F 59% 29.64 in - WSW 12.7 mph - N/A   Mostly Cloudy
6:15 PM 57.2 °F - 44.6 °F 63% 29.66 in - West 11.5 mph - N/A   Mostly Cloudy
6:35 PM 57.2 °F - 44.6 °F 63% 29.68 in - West 11.5 mph 18.4 mph N/A   Mostly Cloudy
6:55 PM 57.2 °F - 44.6 °F 63% 29.67 in - West 10.4 mph - N/A   Overcast
7:15 PM 57.2 °F - 44.6 °F 63% 29.66 in - West 6.9 mph - N/A   Overcast
7:35 PM 55.4 °F - 42.8 °F 63% 29.69 in - NW 11.5 mph 18.4 mph N/A   Overcast
7:55 PM 53.6 °F - 41.0 °F 62% 29.69 in - NNW 11.5 mph - N/A   Overcast
8:15 PM 53.6 °F - 37.4 °F 54% 29.70 in - NNW 20.7 mph 27.6 mph N/A   Overcast
8:35 PM 50.0 °F - 33.8 °F 54% 29.74 in - NNW 23.0 mph 27.6 mph N/A   Mostly Cloudy
8:55 PM 46.4 °F 38.5 °F 30.2 °F 53% 29.76 in - NNW 21.9 mph 28.8 mph N/A   Overcast
9:15 PM 46.4 °F 38.7 °F 28.4 °F 50% 29.77 in - NNW 20.7 mph 27.6 mph N/A   Overcast
9:35 PM 44.6 °F 38.1 °F 28.4 °F 53% 29.80 in - NNW 13.8 mph - N/A   Overcast
9:55 PM 44.6 °F 37.8 °F 28.4 °F 53% 29.80 in - NNW 15.0 mph - N/A   Overcast
10:15 PM 44.6 °F 36.9 °F 26.6 °F 49% 29.83 in - NW 18.4 mph 24.2 mph N/A   Overcast
10:55 PM 42.8 °F 34.3 °F 24.8 °F 49% 29.85 in - NNW 19.6 mph 26.5 mph N/A   Overcast
11:15 PM 42.8 °F 33.3 °F 21.2 °F 42% 29.86 in - NNW 24.2 mph 33.4 mph N/A   Overcast
11:35 PM 41.0 °F 31.6 °F 19.4 °F 42% 29.87 in - NNW 20.7 mph 26.5 mph N/A   Overcast
11:55 PM 41.0 °F 31.6 °F 19.4 °F 42% 29.88 in - NNW 20.7 mph 29.9 mph N/A   Overcast